| time (UTC) | temp C | wind direction | speed KPH | gust KPH | rain 1hr cm | rain 24hr cm | rain mn cm | humidity % | barometer mb |
| 20260509102605 | 5 | 270 | 3.2 | 12.9 | 0.00 | 0.00 | 0.00 | 77 | 1028.6 |
| 20260509102054 | 5 | 135 | 3.2 | 9.7 | 0.00 | 0.00 | 0.00 | 77 | 1028.6 |
| 20260509101544 | 5 | 225 | 4.8 | 6.4 | 0.00 | 0.00 | 0.00 | 77 | 1028.4 |
| 20260509101033 | 5 | 180 | 3.2 | 12.9 | 0.00 | 0.00 | 0.00 | 77 | 1028.4 |
| 20260509100523 | 5 | 180 | 3.2 | 12.9 | 0.00 | 0.00 | 0.00 | 77 | 1028.4 |
| 20260509100014 | 5 | 158 | 6.4 | 17.7 | 0.00 | 0.00 | 0.00 | 76 | 1028.3 |
| 20260509095503 | 5 | 180 | 11.3 | 25.7 | 0.00 | 0.00 | 0.00 | 75 | 1028.1 |
| 20260509094954 | 5 | 113 | 6.4 | 25.7 | 0.00 | 0.00 | 0.00 | 75 | 1027.8 |
| 20260509094453 | 5 | 180 | 8.0 | 14.5 | 0.00 | 0.00 | 0.00 | 75 | 1028.1 |
| 20260509093933 | 5 | 180 | 3.2 | 12.9 | 0.00 | 0.00 | 0.00 | 76 | 1027.9 |
| 20260509093424 | 5 | 225 | 3.2 | 11.3 | 0.00 | 0.00 | 0.00 | 76 | 1027.9 |
| 20260509092913 | 5 | 23 | 4.8 | 20.9 | 0.00 | 0.00 | 0.00 | 75 | 1027.6 |
| 20260509092402 | 5 | 180 | 8.0 | 20.9 | 0.00 | 0.00 | 0.00 | 75 | 1027.6 |
| 20260509091853 | 5 | 180 | 6.4 | 20.9 | 0.00 | 0.00 | 0.00 | 75 | 1027.7 |
| 20260509091347 | 5 | 158 | 11.3 | 20.9 | 0.00 | 0.00 | 0.00 | 75 | 1027.4 |
| 20260509090833 | 5 | 203 | 8.0 | 17.7 | 0.00 | 0.00 | 0.00 | 75 | 1027.4 |
| 20260509085812 | 5 | 203 | 4.8 | 17.7 | 0.00 | 0.00 | 0.00 | 75 | 1027.6 |
| 20260509085302 | 5 | 203 | 3.2 | 12.9 | 0.00 | 0.00 | 0.00 | 75 | 1027.4 |
| 20260509084752 | 5 | 135 | 3.2 | 12.9 | 0.00 | 0.00 | 0.00 | 75 | 1027.3 |
| 20260509084243 | 5 | 158 | 4.8 | 12.9 | 0.00 | 0.00 | 0.00 | 75 | 1027.4 |
| 20260509083732 | 5 | 338 | 6.4 | 17.7 | 0.00 | 0.00 | 0.00 | 74 | 1027.2 |
| 20260509082201 | 5 | 158 | 4.8 | 17.7 | 0.00 | 0.00 | 0.00 | 73 | 1027.5 |
| 20260509081141 | 5 | 203 | 6.4 | 22.5 | 0.00 | 0.00 | 0.00 | 71 | 1027.3 |
| 20260509080631 | 6 | 90 | 6.4 | 22.5 | 0.00 | 0.00 | 0.00 | 71 | 1026.8 |
| 20260509080120 | 6 | 338 | 3.2 | 25.7 | 0.00 | 0.00 | 0.00 | 70 | 1026.8 |
| 20260509075610 | 6 | 113 | 12.9 | 32.2 | 0.00 | 0.00 | 0.00 | 70 | 1026.8 |
| 20260509074551 | 6 | 180 | 17.7 | 35.4 | 0.00 | 0.00 | 0.00 | 67 | 1026.5 |
| 20260509074040 | 6 | 45 | 9.7 | 27.4 | 0.00 | 0.00 | 0.00 | 69 | 1026.0 |
| 20260509073531 | 6 | 225 | 17.7 | 27.4 | 0.00 | 0.00 | 0.00 | 69 | 1025.8 |
| 20260509073020 | 7 | 158 | 6.4 | 24.1 | 0.00 | 0.00 | 0.00 | 71 | 1025.8 |
| 20260509072512 | 7 | 68 | 3.2 | 17.7 | 0.00 | 0.00 | 0.00 | 72 | 1025.8 |
| 20260509071450 | 7 | 203 | 6.4 | 17.7 | 0.00 | 0.00 | 0.00 | 73 | 1025.4 |
| 20260509070939 | 7 | 293 | 3.2 | 9.7 | 0.00 | 0.00 | 0.00 | 74 | 1025.0 |
| 20260509070429 | 7 | 90 | 4.8 | 9.7 | 0.00 | 0.00 | 0.00 | 75 | 1025.2 |
| 20260509065921 | 7 | 90 | 3.2 | 9.7 | 0.00 | 0.00 | 0.00 | 78 | 1025.0 |
| 20260509065409 | 7 | 90 | 3.2 | 6.4 | 0.00 | 0.00 | 0.00 | 84 | 1025.2 |
| 20260509064859 | 7 | 113 | 3.2 | 6.4 | 0.00 | 0.00 | 0.00 | 86 | 1024.6 |
| 20260509064349 | 7 | 68 | 1.6 | 3.2 | 0.00 | 0.00 | 0.00 | 91 | 1024.4 |
| 20260509063839 | 8 | 45 | 3.2 | 3.2 | 0.00 | 0.00 | 0.00 | 92 | 1024.5 |
| 20260509062818 | 8 | 135 | 0.0 | 3.2 | 0.00 | 0.00 | 0.00 | 92 | 1024.5 |
| 20260509061248 | 8 | 90 | 0.0 | 3.2 | 0.00 | 0.00 | 0.00 | 92 | 1024.2 |
| 20260509060739 | 8 | 135 | 1.6 | 0.0 | 0.00 | 0.00 | 0.00 | 92 | 1024.2 |
| 20260509060150 | 8 | 270 | 0.0 | 0.0 | 0.00 | 0.00 | 0.00 | 91 | 1024.2 |
| 20260509055930 | 8 | 293 | 0.0 | 3.2 | 0.00 | 0.00 | 0.00 | 91 | 1024.1 |
| 20260509055422 | 8 | 68 | 3.2 | 3.2 | 0.00 | 0.00 | 0.00 | 91 | 1024.0 |
| 20260509054910 | 8 | 248 | 1.6 | 3.2 | 0.00 | 0.00 | 0.00 | 90 | 1024.0 |
| 20260509054400 | 8 | 45 | 1.6 | 3.2 | 0.00 | 0.00 | 0.00 | 90 | 1024.0 |
| 20260509053850 | 8 | 23 | 1.6 | 3.2 | 0.00 | 0.00 | 0.00 | 90 | 1023.8 |
| 20260509053339 | 8 | 68 | 0.0 | 3.2 | 0.00 | 0.00 | 0.00 | 90 | 1024.1 |
| 20260509052831 | 8 | 158 | 0.0 | 3.2 | 0.00 | 0.00 | 0.00 | 89 | 1023.6 |
| 20260509052320 | 8 | 45 | 0.0 | 3.2 | 0.00 | 0.00 | 0.00 | 89 | 1023.4 |
| 20260509051300 | 8 | 45 | 1.6 | 3.2 | 0.00 | 0.00 | 0.00 | 89 | 1023.3 |
| 20260509050749 | 8 | 45 | 0.0 | 3.2 | 0.00 | 0.00 | 0.00 | 90 | 1023.2 |
| 20260509050240 | 8 | 68 | 0.0 | 3.2 | 0.00 | 0.00 | 0.00 | 90 | 1023.2 |
| 20260509045729 | 8 | 45 | 0.0 | 3.2 | 0.00 | 0.00 | 0.00 | 90 | 1023.2 |
| 20260509045219 | 8 | 68 | 1.6 | 3.2 | 0.00 | 0.00 | 0.00 | 90 | 1022.7 |
| 20260509044709 | 8 | 248 | 0.0 | 3.2 | 0.00 | 0.00 | 0.00 | 91 | 1022.7 |
| 20260509043649 | 8 | 0 | 0.0 | 3.2 | 0.00 | 0.00 | 0.00 | 91 | 1022.6 |
| 20260509043138 | 7 | 23 | 0.0 | 3.2 | 0.00 | 0.00 | 0.00 | 91 | 1022.5 |
| 20260509042628 | 7 | 0 | 0.0 | 3.2 | 0.00 | 0.00 | 0.00 | 91 | 1022.7 |
| 20260509042121 | 7 | 0 | 0.0 | 3.2 | 0.00 | 0.00 | 0.00 | 91 | 1022.5 |
| 20260509041605 | 7 | 338 | 0.0 | 0.0 | 0.00 | 0.00 | 0.00 | 91 | 1022.4 |
| 20260509041058 | 7 | 225 | 0.0 | 0.0 | 0.00 | 0.00 | 0.00 | 91 | 1022.1 |
| 20260509040547 | 7 | 225 | 0.0 | 3.2 | 0.00 | 0.00 | 0.00 | 91 | 1021.9 |
| 20260509040035 | 7 | 225 | 0.0 | 3.2 | 0.00 | 0.00 | 0.00 | 91 | 1021.9 |
| 20260509035529 | 7 | 23 | 0.0 | 0.0 | 0.00 | 0.00 | 0.00 | 91 | 1021.5 |
| 20260509035018 | 7 | 23 | 0.0 | 3.2 | 0.00 | 0.00 | 0.00 | 91 | 1021.5 |
| 20260509034507 | 7 | 0 | 0.0 | 3.2 | 0.00 | 0.00 | 0.00 | 91 | 1021.4 |
| 20260509033957 | 7 | 338 | 0.0 | 3.2 | 0.00 | 0.00 | 0.00 | 91 | 1021.1 |
| 20260509033447 | 7 | 90 | 0.0 | 3.2 | 0.00 | 0.00 | 0.00 | 91 | 1021.2 |
| 20260509032938 | 7 | 203 | 0.0 | 3.2 | 0.00 | 0.00 | 0.00 | 91 | 1020.9 |
| 20260509031917 | 7 | 45 | 0.0 | 0.0 | 0.00 | 0.00 | 0.00 | 90 | 1020.6 |
| 20260509031407 | 7 | 23 | 0.0 | 0.0 | 0.00 | 0.00 | 0.00 | 90 | 1020.6 |
| 20260509030856 | 7 | 23 | 0.0 | 0.0 | 0.00 | 0.00 | 0.00 | 91 | 1020.5 |
| 20260509030348 | 7 | 23 | 0.0 | 0.0 | 0.00 | 0.00 | 0.00 | 91 | 1020.3 |
| 20260509025837 | 7 | 23 | 0.0 | 0.0 | 0.00 | 0.00 | 0.00 | 91 | 1020.2 |
| 20260509025326 | 7 | 45 | 0.0 | 0.0 | 0.00 | 0.00 | 0.00 | 91 | 1020.1 |
| 20260509024816 | 7 | 45 | 0.0 | 0.0 | 0.00 | 0.00 | 0.00 | 91 | 1019.7 |
| 20260509024306 | 7 | 23 | 0.0 | 0.0 | 0.00 | 0.00 | 0.00 | 90 | 1019.4 |
| 20260509023757 | 7 | 23 | 0.0 | 0.0 | 0.00 | 0.00 | 0.00 | 90 | 1019.4 |
| 20260509023246 | 7 | 23 | 0.0 | 0.0 | 0.00 | 0.00 | 0.00 | 90 | 1019.4 |
| 20260509022225 | 7 | 90 | 0.0 | 0.0 | 0.00 | 0.00 | 0.00 | 89 | 1018.9 |
| 20260509021207 | 7 | 158 | 0.0 | 0.0 | 0.00 | 0.00 | 0.00 | 89 | 1018.7 |
| 20260509020655 | 7 | 23 | 0.0 | 0.0 | 0.00 | 0.00 | 0.00 | 89 | 1018.7 |
| 20260509020145 | 7 | 90 | 0.0 | 0.0 | 0.00 | 0.00 | 0.00 | 89 | 1018.7 |
| 20260509015635 | 7 | 23 | 0.0 | 0.0 | 0.00 | 0.00 | 0.00 | 89 | 1018.3 |
| 20260509015125 | 7 | 113 | 0.0 | 0.0 | 0.00 | 0.00 | 0.00 | 88 | 1018.4 |
| 20260509014616 | 7 | 23 | 0.0 | 0.0 | 0.00 | 0.00 | 0.00 | 87 | 1018.3 |
| 20260509013555 | 7 | 68 | 0.0 | 0.0 | 0.00 | 0.00 | 0.00 | 87 | 1018.2 |
| 20260509013045 | 7 | 23 | 0.0 | 0.0 | 0.00 | 0.00 | 0.00 | 86 | 1017.9 |
| 20260509012534 | 7 | 23 | 0.0 | 0.0 | 0.00 | 0.00 | 0.00 | 86 | 1017.9 |
| 20260509011515 | 7 | 315 | 0.0 | 3.2 | 0.00 | 0.00 | 0.00 | 85 | 1017.7 |
| 20260509011004 | 7 | 338 | 0.0 | 3.2 | 0.00 | 0.00 | 0.00 | 85 | 1017.9 |
| 20260509010454 | 7 | 23 | 3.2 | 3.2 | 0.00 | 0.00 | 0.00 | 85 | 1017.3 |
| 20260509005943 | 7 | 23 | 0.0 | 3.2 | 0.00 | 0.00 | 0.00 | 86 | 1017.4 |
| 20260509005435 | 7 | 90 | 1.6 | 6.4 | 0.00 | 0.00 | 0.00 | 85 | 1017.3 |
| 20260509004924 | 7 | 45 | 3.2 | 6.4 | 0.00 | 0.00 | 0.00 | 86 | 1017.3 |
| 20260509004413 | 7 | 315 | 1.6 | 6.4 | 0.00 | 0.00 | 0.00 | 85 | 1017.1 |
| 20260509003904 | 7 | 0 | 1.6 | 6.4 | 0.00 | 0.00 | 0.00 | 84 | 1017.0 |
| 20260509003353 | 7 | 315 | 1.6 | 3.2 | 0.00 | 0.00 | 0.00 | 84 | 1017.1 |
| 20260509002845 | 6 | 68 | 3.2 | 3.2 | 0.00 | 0.00 | 0.00 | 83 | 1017.2 |
| 20260509002333 | 6 | 90 | 1.6 | 3.2 | 0.00 | 0.00 | 0.00 | 85 | 1017.0 |
| 20260509001823 | 6 | 45 | 1.6 | 3.2 | 0.00 | 0.00 | 0.00 | 86 | 1017.0 |
| 20260509001313 | 6 | 135 | 1.6 | 3.2 | 0.00 | 0.00 | 0.00 | 87 | 1016.6 |
| 20260509000803 | 6 | 225 | 1.6 | 3.2 | 0.00 | 0.00 | 0.00 | 87 | 1016.9 |
| 20260508235233 | 6 | 68 | 0.0 | 3.2 | 0.00 | 0.00 | 0.00 | 85 | 1016.6 |
| 20260508234212 | 6 | 45 | 1.6 | 3.2 | 0.00 | 0.00 | 0.00 | 84 | 1016.8 |
| 20260508233703 | 6 | 293 | 0.0 | 3.2 | 0.00 | 0.00 | 0.00 | 84 | 1016.6 |
| 20260508233152 | 6 | 90 | 0.0 | 3.2 | 0.00 | 0.00 | 0.00 | 84 | 1016.4 |
| 20260508232641 | 6 | 180 | 1.6 | 3.2 | 0.00 | 0.00 | 0.00 | 84 | 1016.5 |
| 20260508232131 | 6 | 45 | 0.0 | 3.2 | 0.00 | 0.00 | 0.00 | 83 | 1016.4 |
| 20260508231621 | 6 | 68 | 1.6 | 3.2 | 0.00 | 0.00 | 0.00 | 82 | 1016.0 |
| 20260508230051 | 7 | 135 | 1.6 | 3.2 | 0.00 | 0.00 | 0.00 | 82 | 1015.9 |
| 20260508225031 | 7 | 338 | 0.0 | 3.2 | 0.00 | 0.00 | 0.00 | 80 | 1015.9 |
| 20260508224522 | 7 | 68 | 1.6 | 3.2 | 0.00 | 0.00 | 0.00 | 79 | 1015.8 |
| 20260508224011 | 7 | 45 | 3.2 | 3.2 | 0.00 | 0.00 | 0.00 | 78 | 1015.9 |
| 20260508223501 | 7 | 315 | 0.0 | 3.2 | 0.00 | 0.00 | 0.00 | 76 | 1015.8 |
| 20260508222951 | 7 | 338 | 0.0 | 3.2 | 0.00 | 0.00 | 0.00 | 76 | 1015.8 |
| 20260508222440 | 8 | 23 | 0.0 | 3.2 | 0.00 | 0.00 | 0.00 | 75 | 1015.8 |
| 20260508221420 | 8 | 180 | 0.0 | 0.0 | 0.00 | 0.00 | 0.00 | 72 | 1015.1 |
| 20260508220911 | 8 | 180 | 0.0 | 0.0 | 0.00 | 0.00 | 0.00 | 72 | 1015.2 |
| 20260508220400 | 8 | 180 | 0.0 | 3.2 | 0.00 | 0.00 | 0.00 | 71 | 1015.1 |
| 20260508215341 | 9 | 293 | 0.0 | 3.2 | 0.00 | 0.00 | 0.00 | 69 | 1015.2 |
| 20260508214829 | 10 | 270 | 0.0 | 3.2 | 0.00 | 0.00 | 0.00 | 67 | 1015.0 |
| 20260508213809 | 10 | 23 | 1.6 | 6.4 | 0.00 | 0.00 | 0.00 | 66 | 1015.0 |
| 20260508213300 | 10 | 45 | 3.2 | 9.7 | 0.00 | 0.00 | 0.00 | 65 | 1014.6 |
| 20260508211728 | 11 | 45 | 4.8 | 12.9 | 0.00 | 0.00 | 0.00 | 63 | 1014.8 |
| 20260508211219 | 11 | 45 | 8.0 | 12.9 | 0.00 | 0.00 | 0.00 | 61 | 1014.6 |
| 20260508210709 | 11 | 45 | 6.4 | 12.9 | 0.00 | 0.00 | 0.00 | 60 | 1014.6 |
| 20260508210200 | 11 | 45 | 3.2 | 12.9 | 0.00 | 0.00 | 0.00 | 59 | 1014.9 |
| 20260508205656 | 11 | 23 | 3.2 | 14.5 | 0.00 | 0.00 | 0.00 | 59 | 1014.4 |
| 20260508205138 | 12 | 45 | 6.4 | 20.9 | 0.00 | 0.00 | 0.00 | 58 | 1014.9 |
| 20260508204628 | 12 | 68 | 8.0 | 20.9 | 0.00 | 0.00 | 0.00 | 57 | 1014.6 |
| 20260508204118 | 12 | 23 | 4.8 | 17.7 | 0.00 | 0.00 | 0.00 | 57 | 1014.6 |
| 20260508203610 | 12 | 23 | 6.4 | 17.7 | 0.00 | 0.00 | 0.00 | 55 | 1014.5 |
| 20260508203058 | 12 | 0 | 8.0 | 17.7 | 0.00 | 0.00 | 0.00 | 56 | 1014.5 |
| 20260508202548 | 12 | 0 | 8.0 | 17.7 | 0.00 | 0.00 | 0.00 | 55 | 1014.5 |
| 20260508202038 | 12 | 90 | 4.8 | 17.7 | 0.00 | 0.00 | 0.00 | 56 | 1014.9 |
| 20260508201533 | 12 | 0 | 8.0 | 17.7 | 0.00 | 0.00 | 0.00 | 54 | 1014.8 |
| 20260508201019 | 12 | 338 | 6.4 | 17.7 | 0.00 | 0.00 | 0.00 | 54 | 1015.0 |
| 20260508195957 | 13 | 45 | 6.4 | 17.7 | 0.00 | 0.00 | 0.00 | 53 | 1015.3 |
| 20260508195447 | 13 | 23 | 6.4 | 20.9 | 0.00 | 0.00 | 0.00 | 53 | 1015.2 |
| 20260508194937 | 13 | 45 | 6.4 | 20.9 | 0.00 | 0.00 | 0.00 | 53 | 1015.3 |
| 20260508194429 | 13 | 0 | 6.4 | 24.1 | 0.00 | 0.00 | 0.00 | 53 | 1015.2 |
| 20260508193917 | 13 | 0 | 6.4 | 24.1 | 0.00 | 0.00 | 0.00 | 49 | 1015.2 |
| 20260508193406 | 13 | 45 | 3.2 | 22.5 | 0.00 | 0.00 | 0.00 | 53 | 1015.4 |
| 20260508192858 | 13 | 0 | 6.4 | 17.7 | 0.00 | 0.00 | 0.00 | 50 | 1015.3 |
| 20260508192347 | 13 | 0 | 8.0 | 20.9 | 0.00 | 0.00 | 0.00 | 51 | 1015.6 |
| 20260508191326 | 13 | 315 | 8.0 | 20.9 | 0.00 | 0.00 | 0.00 | 51 | 1015.6 |
| 20260508190307 | 13 | 45 | 8.0 | 22.5 | 0.00 | 0.00 | 0.00 | 50 | 1015.9 |
| 20260508185756 | 13 | 45 | 11.3 | 17.7 | 0.00 | 0.00 | 0.00 | 50 | 1015.8 |
| 20260508183716 | 13 | 338 | 6.4 | 14.5 | 0.00 | 0.00 | 0.00 | 50 | 1016.2 |
| 20260508183206 | 13 | 0 | 6.4 | 17.7 | 0.00 | 0.00 | 0.00 | 49 | 1016.2 |
| 20260508182656 | 13 | 338 | 9.7 | 17.7 | 0.00 | 0.00 | 0.00 | 47 | 1016.3 |
| 20260508182145 | 13 | 338 | 3.2 | 12.9 | 0.00 | 0.00 | 0.00 | 48 | 1016.6 |
| 20260508181635 | 13 | 68 | 3.2 | 20.9 | 0.00 | 0.00 | 0.00 | 48 | 1016.8 |
| 20260508181125 | 13 | 0 | 8.0 | 20.9 | 0.00 | 0.00 | 0.00 | 49 | 1016.6 |
| 20260508180614 | 13 | 0 | 4.8 | 14.5 | 0.00 | 0.00 | 0.00 | 48 | 1017.0 |
| 20260508180106 | 13 | 45 | 6.4 | 14.5 | 0.00 | 0.00 | 0.00 | 49 | 1016.9 |
| 20260508175555 | 13 | 45 | 9.7 | 17.7 | 0.00 | 0.00 | 0.00 | 47 | 1017.1 |
| 20260508175045 | 13 | 68 | 3.2 | 17.7 | 0.00 | 0.00 | 0.00 | 50 | 1017.5 |
| 20260508174534 | 13 | 0 | 4.8 | 12.9 | 0.00 | 0.00 | 0.00 | 48 | 1017.5 |
| 20260508174025 | 13 | 23 | 3.2 | 12.9 | 0.00 | 0.00 | 0.00 | 49 | 1017.6 |
| 20260508173516 | 13 | 45 | 6.4 | 12.9 | 0.00 | 0.00 | 0.00 | 49 | 1017.9 |
| 20260508173004 | 13 | 23 | 8.0 | 17.7 | 0.00 | 0.00 | 0.00 | 46 | 1017.6 |
| 20260508171943 | 13 | 270 | 3.2 | 20.9 | 0.00 | 0.00 | 0.00 | 48 | 1018.2 |
| 20260508171435 | 13 | 23 | 6.4 | 24.1 | 0.00 | 0.00 | 0.00 | 48 | 1018.2 |
| 20260508170925 | 13 | 338 | 6.4 | 24.1 | 0.00 | 0.00 | 0.00 | 48 | 1018.4 |
| 20260508170414 | 13 | 90 | 4.8 | 17.7 | 0.00 | 0.00 | 0.00 | 46 | 1018.4 |
| 20260508165353 | 13 | 23 | 6.4 | 14.5 | 0.00 | 0.00 | 0.00 | 48 | 1018.6 |
| 20260508164844 | 13 | 23 | 6.4 | 14.5 | 0.00 | 0.00 | 0.00 | 48 | 1018.9 |
| 20260508164335 | 13 | 23 | 6.4 | 17.7 | 0.00 | 0.00 | 0.00 | 47 | 1019.1 |
| 20260508163823 | 13 | 23 | 6.4 | 17.7 | 0.00 | 0.00 | 0.00 | 48 | 1019.1 |
| 20260508163312 | 13 | 68 | 6.4 | 17.7 | 0.00 | 0.00 | 0.00 | 48 | 1019.3 |
| 20260508162802 | 13 | 0 | 6.4 | 14.5 | 0.00 | 0.00 | 0.00 | 47 | 1019.3 |
| 20260508162253 | 13 | 23 | 6.4 | 12.9 | 0.00 | 0.00 | 0.00 | 49 | 1019.4 |
| 20260508161744 | 13 | 45 | 6.4 | 12.9 | 0.00 | 0.00 | 0.00 | 48 | 1019.5 |
| 20260508161232 | 13 | 90 | 6.4 | 12.9 | 0.00 | 0.00 | 0.00 | 47 | 1019.7 |
| 20260508160722 | 13 | 293 | 3.2 | 11.3 | 0.00 | 0.00 | 0.00 | 51 | 1019.9 |
| 20260508160213 | 12 | 270 | 4.8 | 9.7 | 0.00 | 0.00 | 0.00 | 50 | 1020.0 |
| 20260508155702 | 12 | 293 | 4.8 | 9.7 | 0.00 | 0.00 | 0.00 | 57 | 1020.1 |
| 20260508155152 | 12 | 315 | 6.4 | 9.7 | 0.00 | 0.00 | 0.00 | 54 | 1019.9 |
| 20260508154642 | 12 | 315 | 3.2 | 6.4 | 0.00 | 0.00 | 0.00 | 60 | 1020.2 |
| 20260508154131 | 11 | 225 | 1.6 | 6.4 | 0.00 | 0.00 | 0.00 | 56 | 1020.3 |
| 20260508153623 | 11 | 293 | 3.2 | 9.7 | 0.00 | 0.00 | 0.00 | 58 | 1020.4 |
| 20260508153112 | 11 | 293 | 3.2 | 12.9 | 0.00 | 0.00 | 0.00 | 62 | 1020.6 |
| 20260508152601 | 10 | 158 | 0.0 | 17.7 | 0.00 | 0.00 | 0.00 | 59 | 1020.9 |
| 20260508152051 | 10 | 180 | 6.4 | 17.7 | 0.00 | 0.00 | 0.00 | 57 | 1020.7 |
| 20260508151541 | 10 | 158 | 6.4 | 17.7 | 0.00 | 0.00 | 0.00 | 57 | 1021.1 |
| 20260508151032 | 10 | 180 | 6.4 | 12.9 | 0.00 | 0.00 | 0.00 | 59 | 1021.4 |
| 20260508150521 | 10 | 203 | 6.4 | 14.5 | 0.00 | 0.00 | 0.00 | 63 | 1021.5 |
| 20260508150011 | 10 | 158 | 6.4 | 17.7 | 0.00 | 0.00 | 0.00 | 61 | 1021.6 |
| 20260508145500 | 10 | 203 | 6.4 | 17.7 | 0.00 | 0.00 | 0.00 | 61 | 1021.5 |
| 20260508144950 | 10 | 180 | 8.0 | 17.7 | 0.00 | 0.00 | 0.00 | 62 | 1021.6 |
| 20260508144442 | 10 | 225 | 8.0 | 17.7 | 0.00 | 0.00 | 0.00 | 62 | 1021.6 |
| 20260508143930 | 10 | 203 | 6.4 | 17.7 | 0.00 | 0.00 | 0.00 | 64 | 1022.0 |
| 20260508143420 | 10 | 180 | 8.0 | 17.7 | 0.00 | 0.00 | 0.00 | 62 | 1021.7 |
| 20260508142910 | 10 | 158 | 6.4 | 17.7 | 0.00 | 0.00 | 0.00 | 62 | 1022.0 |
| 20260508141851 | 10 | 225 | 8.0 | 20.9 | 0.00 | 0.00 | 0.00 | 61 | 1022.0 |
| 20260508141340 | 11 | 203 | 3.2 | 20.9 | 0.00 | 0.00 | 0.00 | 61 | 1022.1 |
| 20260508140829 | 11 | 225 | 8.0 | 20.9 | 0.00 | 0.00 | 0.00 | 60 | 1022.2 |
| 20260508135810 | 11 | 180 | 8.0 | 12.9 | 0.00 | 0.00 | 0.00 | 56 | 1021.9 |
| 20260508135301 | 11 | 315 | 3.2 | 6.4 | 0.00 | 0.00 | 0.00 | 53 | 1021.7 |
| 20260508134749 | 11 | 0 | 0.0 | 6.4 | 0.00 | 0.00 | 0.00 | 58 | 1022.0 |
| 20260508134239 | 11 | 338 | 3.2 | 6.4 | 0.00 | 0.00 | 0.00 | 58 | 1021.7 |
| 20260508133729 | 11 | 45 | 4.8 | 6.4 | 0.00 | 0.00 | 0.00 | 59 | 1021.6 |
| 20260508133220 | 10 | 68 | 3.2 | 6.4 | 0.00 | 0.00 | 0.00 | 62 | 1021.7 |
| 20260508132710 | 10 | 0 | 1.6 | 3.2 | 0.00 | 0.00 | 0.00 | 69 | 1021.5 |
| 20260508132159 | 10 | 158 | 0.0 | 3.2 | 0.00 | 0.00 | 0.00 | 68 | 1021.7 |
| 20260508131648 | 10 | 113 | 3.2 | 3.2 | 0.00 | 0.00 | 0.00 | 67 | 1022.0 |
| 20260508130628 | 10 | 68 | 0.0 | 6.4 | 0.00 | 0.00 | 0.00 | 66 | 1021.5 |
| 20260508130120 | 10 | 293 | 1.6 | 12.9 | 0.00 | 0.00 | 0.00 | 64 | 1021.3 |
| 20260508125608 | 10 | 23 | 6.4 | 17.7 | 0.00 | 0.00 | 0.00 | 60 | 1021.1 |
| 20260508125058 | 10 | 113 | 9.7 | 17.7 | 0.00 | 0.00 | 0.00 | 62 | 1021.0 |
| 20260508124548 | 9 | 113 | 6.4 | 17.7 | 0.00 | 0.00 | 0.00 | 64 | 1020.9 |
| 20260508124037 | 9 | 68 | 8.0 | 20.9 | 0.00 | 0.00 | 0.00 | 66 | 1020.7 |
| 20260508123529 | 8 | 45 | 9.7 | 20.9 | 0.00 | 0.00 | 0.00 | 68 | 1020.6 |
| 20260508123018 | 7 | 0 | 6.4 | 17.7 | 0.00 | 0.00 | 0.00 | 76 | 1020.7 |
| 20260508122508 | 6 | 45 | 0.0 | 17.7 | 0.00 | 0.00 | 0.00 | 87 | 1020.9 |
| 20260508121958 | 5 | 0 | 3.2 | 6.4 | 0.00 | 0.00 | 0.00 | 95 | 1020.6 |
| 20260508121447 | 5 | 0 | 0.0 | 3.2 | 0.00 | 0.00 | 0.00 | 95 | 1020.4 |
| 20260508120938 | 5 | 135 | 0.0 | 6.4 | 0.00 | 0.00 | 0.00 | 95 | 1020.5 |
| 20260508120427 | 4 | 338 | 0.0 | 6.4 | 0.00 | 0.00 | 0.00 | 95 | 1020.7 |
| 20260508114858 | 3 | 23 | 3.2 | 3.2 | 0.00 | 0.00 | 0.00 | 94 | 1020.2 |
| 20260508114348 | 3 | 0 | 0.0 | 3.2 | 0.00 | 0.00 | 0.00 | 94 | 1020.3 |
| 20260508113836 | 3 | 23 | 0.0 | 3.2 | 0.00 | 0.00 | 0.00 | 94 | 1020.2 |
| 20260508113327 | 3 | 0 | 0.0 | 3.2 | 0.00 | 0.00 | 0.00 | 94 | 1020.2 |
| 20260508112816 | 3 | 45 | 1.6 | 3.2 | 0.00 | 0.00 | 0.00 | 94 | 1020.0 |
| 20260508111757 | 3 | 23 | 1.6 | 3.2 | 0.00 | 0.00 | 0.00 | 94 | 1019.9 |
| 20260508111246 | 3 | 90 | 1.6 | 3.2 | 0.00 | 0.00 | 0.00 | 94 | 1020.0 |
| 20260508110736 | 2 | 45 | 3.2 | 3.2 | 0.00 | 0.00 | 0.00 | 94 | 1019.7 |
| 20260508110225 | 2 | 0 | 3.2 | 3.2 | 0.00 | 0.00 | 0.00 | 94 | 1019.6 |
| 20260508105716 | 2 | 23 | 0.0 | 3.2 | 0.00 | 0.00 | 0.00 | 94 | 1019.7 |
| 20260508105206 | 2 | 315 | 0.0 | 3.2 | 0.00 | 0.00 | 0.00 | 94 | 1019.4 |
| 20260508104656 | 2 | 23 | 1.6 | 3.2 | 0.00 | 0.00 | 0.00 | 94 | 1019.1 |
| 20260508104145 | 2 | 113 | 0.0 | 3.2 | 0.00 | 0.00 | 0.00 | 94 | 1019.4 |
| 20260508103635 | 2 | 135 | 0.0 | 3.2 | 0.00 | 0.00 | 0.00 | 94 | 1019.1 |
| 20260508103125 | 2 | 203 | 0.0 | 3.2 | 0.00 | 0.00 | 0.00 | 94 | 1019.3 |